OBJECT BA, 57326

Orbit data source: Space-Track

You're viewing an Uncataloged Satellite

Recently launched and/or uncataloged satellites may have evolving metadata. Metadata may include but not limited to: Owner, Maufacturer, Bus, Motor, and Mission.

OBJECT BA, 57326 is a satellite in SSO that was launched on Tue, 27 Jun 2023 UTC via a SOYUZ-2-1B launch vehicle from the Vostochny Cosmodrome (VOSTO). Unknown objects in Earth's orbit typically refer to objects detected orbiting the Earth but have not yet been identified or cataloged. These objects could be anything from previously untracked satellites, spent rocket stages, debris from satellite collisions, or even natural meteoroids temporarily captured by Earth's gravity.

Loading next visibility...
Identifier
57326, 2023-091BA
Orbit
SSO
Country
Flag of TBDTBD
Related business
Flag of RUOOO Stratonavtika (RU)
Manufacturer
MKS
Mission
Commercial Communications
Bus & Motor
TINYSAT 2TU, Unknown motor
Mass
0.25 kg wet, 0.25 kg dry
Launch date (UTC)
2023-06-27 (3 years ago)
Launch vehicle
SOYUZ-2-1B
Launch site
Vostochny Cosmodrome (VOSTO)
Object type
Unknown
Shape & HBR
Box, 0.1 m
Radar Cross Section
0.006 m², Small (<0.1 m²)

Expand to show TLE details & history
Last TLE update: 9 hours ago

TLE from 9 hours ago
0 OBJECT BA
1 57326U 23091BA  26104.31036051  .00117658  00000-0  87112-3 0  9990
2 57326  97.5013 182.6375 0005923 250.2267 109.8358 15.72547924153295
Epoch: 2026-04-14T07:26Z
TLE epoch observation values (Epoch: 2026-04-14T07:26:55.148Z)
Latitude
0.00003°
Longitude
-131.58073°
Altitude
356.131 km
Speed
7.695 km/s
True Right ascension
12h 10m 32s
True Declination
0° 00' 00"
Sunlit
Object was in full shadow at epoch
Visualization orbit readout
Latitude
Unknown
Longitude
Unknown
Altitude
Unknown
Speed
Unknown
Apparent Right ascension
Unknown
Apparent Declination
Unknown
Sunlit
N/A
Visualization observer readout
Local Sidereal Time
22:32:22
Azimuth
Unknown
Elevation
Unknown
Doppler factor
Unknown
Orbital elements
Apogee altitude
352.502 km
Perigee altitude
344.534 km
Semi-major axis
6,726.655 km
Eccentricity
0.00059
Inclination
97.5013°
RAAN
182.6375°
Arg. of periapsis
250.2267°
True anomaly
109.89963°
Mean anomaly
109.8358°
Eccentric anomaly
109.86772°
Mean motion
3.93409 °/min
Orbital period
91.51 mins
BSTAR
0.00087112
Loading maneuver chart data...
Computing Atmospheric mass density...
Loading historical data...
Loading historical data...
Loading historical data...
Loading historical data...
Loading historical data...
Loading historical data...
Loading historical data...

Documentation

Showing up to 5 results
|